Weather History for Lamoni, IA

Change the Weather History Date:

Wednesday, May 22, 2013

  Actual Average Record
Temperature  
Mean Temperature 58 °F 63 °F  
Max Temperature 63 °F 73 °F 90 °F (1970)
Min Temperature 53 °F 53 °F 36 °F (1963)
Degree Days  
Heating Degree Days 7 4  
Month to date heating degree days 165 140  
Since 1 July heating degree days 6045 6035  
Cooling Degree Days 0 2  
Month to date cooling degree days 42 24  
Year to date cooling degree days 54 31  
Growing Degree Days 7 (Base 50)    
Moisture  
Dew Point 50 °F    
Average Humidity 79    
Maximum Humidity 93    
Minimum Humidity 64    
Precipitation  
Precipitation T in 0.18 in 1.14 in (1984)
Month to date precipitation 2.72 3.69  
Sea Level Pressure  
Sea Level Pressure 29.79 in    
Wind  
Wind Speed 12 mph (WNW)    
Max Wind Speed 23 mph    
Max Gust Speed 28 mph    
Visibility 10 miles    
Events Rain    
T = Trace of Precipitation, MM = Missing Value Source: NWS Daily Summary

Daily Weather History Graph

Daily Weather History Graph

Search for Another Location

Airport:

Trip Planner

Search our weather history database for the weather conditions in past years. The results will help you decide how hot, cold, wet, or windy it might be!

Date:

Astronomy

May. 22, 2013 Rise Set
Actual Time 5:52 AM CDT 8:32 PM CDT
Civil Twilight 5:20 AM CDT 9:04 PM CDT
Nautical Twilight 4:41 AM CDT 9:44 PM CDT
Astronomical Twilight 3:56 AM CDT 10:29 PM CDT
Moon 5:55 PM CDT (5/22) 3:57 AM CDT (5/22)
Length of Visible Light 15h 43m
Length of Day
14h 39m
Waxing Gibbous, 91% of the Moon is Illuminated
May 22
Waxing Gibbous
May 24
Full
May 31
Last Quarter
Jun 8
New
Jun 16
First Quarter

Hourly Weather History & Observations

Time (CDT) Temp. Dew Point Humidity Pressure Visibility Wind Dir Wind Speed Gust Speed Precip Events Conditions
12:53 AM 57.0 °F 48.9 °F 74% 29.70 in 10.0 mi WSW 6.9 mph - N/A   Overcast
1:53 AM 57.0 °F 50.0 °F 77% 29.70 in 10.0 mi West 4.6 mph - N/A   Overcast
2:53 AM 57.9 °F 51.1 °F 78% 29.70 in 10.0 mi West 5.8 mph - N/A   Overcast
3:53 AM 57.0 °F 51.1 °F 81% 29.69 in 10.0 mi West 8.1 mph - N/A   Overcast
4:53 AM 55.9 °F 51.1 °F 84% 29.68 in 10.0 mi West 9.2 mph - N/A   Overcast
5:13 AM 55.4 °F 51.8 °F 88% 29.69 in 10.0 mi WNW 10.4 mph - N/A   Overcast
5:21 AM 55.4 °F 51.8 °F 88% 29.69 in 10.0 mi WNW 9.2 mph - N/A   Overcast
5:49 AM 55.4 °F 51.8 °F 88% 29.69 in 10.0 mi WNW 5.8 mph - N/A   Overcast
5:53 AM 55.0 °F 51.1 °F 86% 29.68 in 10.0 mi WNW 8.1 mph - N/A   Overcast
6:22 AM 53.6 °F 48.2 °F 82% 29.70 in 10.0 mi WNW 15.0 mph - N/A   Overcast
6:53 AM 54.0 °F 50.0 °F 86% 29.70 in 9.0 mi West 8.1 mph - N/A   Mostly Cloudy
7:53 AM 55.0 °F 48.9 °F 80% 29.71 in 10.0 mi West 13.8 mph 19.6 mph N/A   Overcast
8:45 AM 55.4 °F 48.2 °F 77% 29.73 in 10.0 mi West 13.8 mph - N/A   Overcast
8:53 AM 55.0 °F 48.9 °F 80% 29.73 in 10.0 mi West 15.0 mph - N/A   Overcast
9:53 AM 55.9 °F 48.9 °F 77% 29.75 in 10.0 mi West 12.7 mph 18.4 mph N/A   Overcast
10:53 AM 55.9 °F 48.9 °F 77% 29.76 in 10.0 mi West 16.1 mph - N/A   Overcast
11:01 AM 55.4 °F 50.0 °F 82% 29.76 in 10.0 mi West 15.0 mph - N/A   Overcast
11:45 AM 57.2 °F 50.0 °F 77% 29.77 in 10.0 mi West 13.8 mph - N/A   Overcast
11:53 AM 57.9 °F 50.0 °F 75% 29.77 in 10.0 mi West 13.8 mph - N/A   Overcast
12:46 PM 57.2 °F 51.8 °F 82% 29.78 in 10.0 mi West 12.7 mph - N/A   Overcast
12:53 PM 57.0 °F 51.1 °F 81% 29.78 in 10.0 mi West 19.6 mph 26.5 mph N/A   Overcast
1:00 PM 57.2 °F 51.8 °F 82% 29.78 in 9.0 mi West 16.1 mph 26.5 mph N/A   Overcast
1:12 PM 57.2 °F 51.8 °F 82% 29.78 in 9.0 mi West 15.0 mph 25.3 mph N/A   Overcast
1:53 PM 57.9 °F 51.1 °F 78% 29.78 in 10.0 mi West 15.0 mph - N/A   Overcast
2:53 PM 59.0 °F 51.1 °F 75% 29.79 in 10.0 mi West 18.4 mph 26.5 mph N/A   Overcast
3:53 PM 61.0 °F 50.0 °F 67% 29.79 in 10.0 mi WNW 19.6 mph 25.3 mph N/A   Overcast
4:53 PM 60.1 °F 48.9 °F 67% 29.80 in 10.0 mi WNW 17.3 mph 23.0 mph N/A   Overcast
5:18 PM 60.8 °F 48.2 °F 63% 29.81 in 10.0 mi WNW 16.1 mph 23.0 mph N/A   Overcast
5:29 PM 59.0 °F 48.2 °F 67% 29.81 in 10.0 mi WNW 15.0 mph - N/A   Overcast
5:50 PM 60.8 °F 48.2 °F 63% 29.82 in 10.0 mi WNW 11.5 mph - N/A   Overcast
5:53 PM 60.1 °F 48.9 °F 67% 29.82 in 10.0 mi WNW 13.8 mph 19.6 mph N/A   Overcast
6:53 PM 57.9 °F 50.0 °F 75% 29.84 in 8.0 mi West 12.7 mph - 0.00 in Rain Light Rain
7:10 PM 55.4 °F 51.8 °F 88% 29.84 in 10.0 mi West 9.2 mph - 0.00 in   Overcast
7:23 PM 55.4 °F 51.8 °F 88% 29.85 in 10.0 mi West 11.5 mph - 0.00 in   Overcast
7:53 PM 54.0 °F 51.1 °F 90% 29.86 in 7.0 mi West 12.7 mph - 0.00 in   Overcast
8:30 PM 53.6 °F 51.8 °F 94% 29.87 in 6.0 mi WNW 10.4 mph - N/A   Overcast
8:53 PM 54.0 °F 52.0 °F 93% 29.88 in 8.0 mi West 9.2 mph - N/A   Overcast
9:03 PM 53.6 °F 51.8 °F 94% 29.88 in 10.0 mi WNW 9.2 mph - N/A   Overcast
9:22 PM 53.6 °F 51.8 °F 94% 29.88 in 10.0 mi NW 10.4 mph - N/A   Overcast
9:37 PM 53.6 °F 51.8 °F 94% 29.89 in 10.0 mi NW 8.1 mph - N/A   Mostly Cloudy
9:53 PM 54.0 °F 50.0 °F 86% 29.89 in 10.0 mi WNW 10.4 mph - N/A   Mostly Cloudy
10:06 PM 53.6 °F 50.0 °F 88% 29.89 in 10.0 mi WNW 11.5 mph 17.3 mph N/A   Overcast
10:22 PM 53.6 °F 50.0 °F 88% 29.90 in 10.0 mi WNW 8.1 mph - N/A   Overcast
10:53 PM 54.0 °F 50.0 °F 86% 29.91 in 10.0 mi WNW 9.2 mph - N/A   Overcast
11:53 PM 53.1 °F 50.0 °F 89% 29.92 in 10.0 mi WNW 11.5 mph - N/A   Overcast